Location: Calberlah
(52.4230°N, 10.6240°E)
Time: 07:03:59
(UTC+00:00)

Cosmos 2333 Rocket - Pass Details

Date: 19 May 2025
Orbit: 840 x 862 km, 70.8° (Epoch: 22 June)

Event Time Altitude Azimuth Distance (km) Brightness Sun altitude
Rises 22:03:32 0° 329° (NNW) 3,444 7.0 -16.0°
Reaches altitude 10° 22:06:04 10° 333° (NNW) 2,501 6.0 -16.1°
Maximum altitude 22:11:43 57° 52° (NE) 1,001 2.7 -16.3°
Enters shadow 22:15:54 18° 127° (SE) 1,962 3.7 -16.5°
